Meteo Giornale » Osservazioni meteo Italia » Monte Terminillo

ore: 15:55 - Osservazioni Meteo Monte Terminillo
Lat. 42° 28' N Lon. 12° 59' E Alt. 1874 metri s.l.m.

sereno Europe/Rome

12 °C

Sereno

Temp. 24 Ore

9 °C

15 °C

Nord

5.5 Km/h

Dew point 9 °C

Umidità 81 %

Visibilità  0 Km

Il sole sorge alle ore 06:54

Il sole tramonta alle ore 19:07

Data e Ora Cielo e Fenomeni T °C DP °C Um. % Pres. hPa Vis. km Vento km/h
Oggi h: 15:55 sereno Sereno 12 9 81 1024 0 N 5.5
Oggi h: 14:55 sereno Sereno 12 9 81 1025 0 N 7.4
Oggi h: 13:55 sereno Sereno 11 9 87 1025 0 O 14.8
Oggi h: 12:55 sereno Sereno 11 8 81 1025 0 NO 24
Oggi h: 11:55 sereno Sereno 11 7 76 1025 0 NO 25.9
Oggi h: 10:55 sereno Sereno 10 7 81 1025 0 NO 38.8
Oggi h: 09:55 sereno Sereno 10 8 87 1025 0 NO 25.9
Oggi h: 08:55 sereno Sereno 10 7 81 1025 0 NO 50
Oggi h: 07:55 sereno Sereno 10 8 87 1025 0 NO 35.2
Oggi h: 06:55 sereno Sereno 9 7 87 1024 0 N/NO 48.1
Oggi h: 04:55 sereno Sereno 11 7 76 1026 0 N 3.7
Oggi h: 03:55 sereno Sereno 11 6 71 1026 0 N 3.7
Oggi h: 02:55 sereno Sereno 11 6 71 1027 0 N 7.4
Oggi h: 01:55 sereno Sereno 11 7 76 1027 0 N 3.7
Oggi h: 00:55 sereno Sereno 11 5 66 1027 0 N 3.7
Ieri h: 23:55 sereno Sereno 11 3 57 1028 0 N 3.7
Ieri h: 22:55 sereno Sereno 12 2 50 1027 0 S 7.4
Ieri h: 21:55 sereno Sereno 12 4 57 1028 0 N 5.5
Ieri h: 20:55 sereno Sereno 13 6 62 1028 0 N 3.7
Ieri h: 19:55 sereno Sereno 13 7 66 1028 0 S/SO 7.4
Ieri h: 18:55 sereno Sereno 14 7 62 1028 0 N 3.7
Ieri h: 17:55 sereno Sereno 14 7 62 1028 0 N 7.4
Ieri h: 16:55 sereno Sereno 15 7 58 1028 0 O/NO 13